contact:dominique.lefevre@mio.osupytheas.fr, maurice.libes@osupytheas.fr, didier.mallarino@osupytheas.fr
Project:EMSO http://www.emso-fr.org/EMSO-France
Depth: 2436.0 m
Title:EMSO Ligure Ouest : Data MII capteur OXYGEN
DateTime,Latitude,Longitude,Optode-Type,Optode_Serial,Oxygen,Saturation_Oxygen,Temperature
DateTime,Latitude,Longitude,Optode-Type,Optode_Serial,µmol.l-1,%,degC
2019-06-30T00:00:46,42.805,6.029,4330,1995,193.438,59.157,13.288
2019-06-30T00:03:46,42.805,6.029,4330,1995,193.534,59.186,13.289
2019-06-30T00:06:46,42.805,6.029,4330,1995,193.426,59.153,13.289
2019-06-30T00:09:46,42.805,6.029,4330,1995,193.392,59.143,13.289
2019-06-30T00:15:46,42.805,6.029,4330,1995,193.378,59.137,13.288
2019-06-30T00:18:46,42.805,6.029,4330,1995,193.431,59.153,13.288
2019-06-30T00:21:46,42.805,6.029,4330,1995,193.419,59.150,13.288
2019-06-30T00:24:46,42.805,6.029,4330,1995,193.382,59.139,13.288
2019-06-30T00:27:46,42.805,6.029,4330,1995,193.375,59.137,13.288
2019-06-30T00:30:46,42.805,6.029,4330,1995,193.378,59.138,13.288
2019-06-30T00:33:46,42.805,6.029,4330,1995,193.397,59.144,13.288
2019-06-30T00:36:46,42.805,6.029,4330,1995,193.410,59.148,13.288
2019-06-30T00:39:46,42.805,6.029,4330,1995,193.415,59.149,13.288
2019-06-30T00:42:46,42.805,6.029,4330,1995,193.423,59.152,13.288
2019-06-30T00:45:46,42.805,6.029,4330,1995,193.481,59.170,13.288
2019-06-30T00:48:46,42.805,6.029,4330,1995,193.508,59.178,13.288
2019-06-30T00:51:46,42.805,6.029,4330,1995,193.446,59.159,13.289
2019-06-30T00:54:46,42.805,6.029,4330,1995,193.408,59.148,13.289
2019-06-30T00:57:46,42.805,6.029,4330,1995,193.419,59.152,13.289
2019-06-30T01:00:46,42.805,6.029,4330,1995,193.391,59.143,13.289
2019-06-30T01:03:46,42.805,6.029,4330,1995,193.419,59.152,13.289
2019-06-30T01:06:46,42.805,6.029,4330,1995,193.447,59.161,13.289
2019-06-30T01:09:46,42.805,6.029,4330,1995,193.421,59.152,13.289
2019-06-30T01:12:46,42.805,6.029,4330,1995,193.473,59.168,13.289
2019-06-30T01:15:46,42.805,6.029,4330,1995,193.491,59.174,13.289
2019-06-30T01:18:46,42.805,6.029,4330,1995,193.460,59.164,13.289
2019-06-30T01:21:46,42.805,6.029,4330,1995,193.467,59.167,13.290
2019-06-30T01:24:46,42.805,6.029,4330,1995,193.497,59.176,13.289
2019-06-30T01:27:46,42.805,6.029,4330,1995,193.464,59.166,13.290
2019-06-30T01:30:46,42.805,6.029,4330,1995,193.450,59.162,13.290
2019-06-30T01:33:46,42.805,6.029,4330,1995,193.498,59.176,13.290
2019-06-30T01:36:46,42.805,6.029,4330,1995,193.438,59.158,13.290
2019-06-30T01:39:46,42.805,6.029,4330,1995,193.486,59.173,13.290
2019-06-30T01:42:46,42.805,6.029,4330,1995,193.485,59.173,13.290
2019-06-30T01:45:46,42.805,6.029,4330,1995,193.446,59.160,13.290
2019-06-30T01:48:46,42.805,6.029,4330,1995,193.473,59.169,13.290
2019-06-30T01:51:46,42.805,6.029,4330,1995,193.509,59.180,13.289
2019-06-30T01:54:46,42.805,6.029,4330,1995,193.489,59.174,13.289
2019-06-30T01:57:46,42.805,6.029,4330,1995,193.554,59.194,13.290
2019-06-30T02:00:46,42.805,6.029,4330,1995,193.536,59.188,13.289
2019-06-30T02:03:46,42.805,6.029,4330,1995,193.550,59.192,13.289
2019-06-30T02:06:46,42.805,6.029,4330,1995,193.520,59.183,13.289
2019-06-30T02:09:46,42.805,6.029,4330,1995,193.531,59.186,13.289
2019-06-30T02:12:46,42.805,6.029,4330,1995,193.514,59.181,13.289
2019-06-30T02:15:46,42.805,6.029,4330,1995,193.546,59.190,13.289
2019-06-30T02:18:46,42.805,6.029,4330,1995,193.573,59.199,13.289
2019-06-30T02:21:46,42.805,6.029,4330,1995,193.509,59.179,13.289
2019-06-30T02:24:46,42.805,6.029,4330,1995,193.460,59.164,13.289
2019-06-30T02:27:46,42.805,6.029,4330,1995,193.523,59.183,13.288
2019-06-30T02:30:46,42.805,6.029,4330,1995,193.477,59.169,13.288
2019-06-30T02:33:46,42.805,6.029,4330,1995,193.488,59.172,13.288
2019-06-30T02:36:46,42.805,6.029,4330,1995,193.490,59.172,13.288
2019-06-30T02:39:46,42.805,6.029,4330,1995,193.539,59.187,13.288
2019-06-30T02:42:46,42.805,6.029,4330,1995,193.494,59.174,13.288
2019-06-30T02:45:46,42.805,6.029,4330,1995,193.515,59.180,13.288
2019-06-30T02:51:46,42.805,6.029,4330,1995,193.599,59.206,13.289
2019-06-30T02:54:46,42.805,6.029,4330,1995,193.537,59.188,13.289
2019-06-30T02:57:46,42.805,6.029,4330,1995,193.534,59.188,13.290
2019-06-30T03:00:46,42.805,6.029,4330,1995,193.656,59.225,13.290
2019-06-30T03:03:46,42.805,6.029,4330,1995,193.631,59.217,13.289
2019-06-30T03:06:46,42.805,6.029,4330,1995,193.601,59.208,13.290
2019-06-30T03:09:46,42.805,6.029,4330,1995,193.600,59.208,13.290
2019-06-30T03:12:46,42.805,6.029,4330,1995,193.636,59.218,13.289
2019-06-30T03:15:46,42.805,6.029,4330,1995,193.626,59.215,13.289
2019-06-30T03:18:46,42.805,6.029,4330,1995,193.615,59.212,13.289
2019-06-30T03:21:46,42.805,6.029,4330,1995,193.585,59.203,13.290
2019-06-30T04:03:01,42.805,6.029,4330,1995,193.655,59.221,13.287
2019-06-30T04:06:01,42.805,6.029,4330,1995,193.663,59.226,13.289
2019-06-30T04:09:01,42.805,6.029,4330,1995,193.636,59.218,13.289
2019-06-30T04:12:01,42.805,6.029,4330,1995,193.588,59.203,13.289
2019-06-30T04:15:01,42.805,6.029,4330,1995,193.586,59.203,13.289
2019-06-30T04:18:01,42.805,6.029,4330,1995,193.663,59.227,13.289
2019-06-30T04:21:01,42.805,6.029,4330,1995,193.699,59.237,13.289
2019-06-30T04:24:01,42.805,6.029,4330,1995,193.718,59.243,13.289
2019-06-30T04:27:01,42.805,6.029,4330,1995,193.752,59.253,13.289
2019-06-30T04:30:01,42.805,6.029,4330,1995,193.772,59.259,13.289
2019-06-30T04:33:01,42.805,6.029,4330,1995,193.747,59.252,13.289
2019-06-30T04:36:01,42.805,6.029,4330,1995,193.716,59.243,13.289
2019-06-30T04:39:01,42.805,6.029,4330,1995,193.739,59.250,13.289
2019-06-30T04:42:01,42.805,6.029,4330,1995,193.669,59.228,13.289
2019-06-30T04:45:01,42.805,6.029,4330,1995,193.686,59.234,13.290
2019-06-30T04:48:01,42.805,6.029,4330,1995,193.619,59.214,13.290
2019-06-30T04:51:01,42.805,6.029,4330,1995,193.568,59.198,13.290
2019-06-30T04:54:01,42.805,6.029,4330,1995,193.549,59.192,13.290
2019-06-30T04:57:01,42.805,6.029,4330,1995,193.601,59.208,13.290
2019-06-30T05:00:01,42.805,6.029,4330,1995,193.621,59.214,13.290
2019-06-30T05:03:01,42.805,6.029,4330,1995,193.597,59.207,13.290
2019-06-30T05:06:01,42.805,6.029,4330,1995,193.643,59.221,13.290
2019-06-30T05:09:01,42.805,6.029,4330,1995,193.737,59.249,13.290
2019-06-30T05:12:01,42.805,6.029,4330,1995,193.770,59.259,13.289
2019-06-30T05:15:01,42.805,6.029,4330,1995,193.728,59.247,13.290
2019-06-30T05:18:01,42.805,6.029,4330,1995,193.779,59.263,13.290
2019-06-30T05:21:01,42.805,6.029,4330,1995,193.623,59.215,13.290
2019-06-30T05:24:01,42.805,6.029,4330,1995,193.596,59.206,13.289
2019-06-30T05:27:01,42.805,6.029,4330,1995,193.660,59.225,13.289
2019-06-30T05:30:01,42.805,6.029,4330,1995,193.672,59.229,13.289
2019-06-30T05:33:01,42.805,6.029,4330,1995,193.637,59.218,13.289
2019-06-30T17:06:19,42.805,6.029,4330,1995,193.955,59.312,13.287
2019-06-30T17:09:19,42.805,6.029,4330,1995,193.953,59.314,13.288
2019-06-30T17:12:19,42.805,6.029,4330,1995,193.970,59.320,13.289
2019-06-30T17:15:19,42.805,6.029,4330,1995,193.957,59.316,13.289
2019-06-30T17:18:19,42.805,6.029,4330,1995,193.936,59.309,13.289
2019-06-30T17:21:19,42.805,6.029,4330,1995,193.883,59.293,13.289
2019-06-30T17:24:19,42.805,6.029,4330,1995,193.874,59.290,13.288
2019-06-30T17:27:19,42.805,6.029,4330,1995,193.909,59.300,13.288
2019-06-30T17:30:19,42.805,6.029,4330,1995,193.902,59.298,13.288
2019-06-30T17:33:19,42.805,6.029,4330,1995,193.883,59.293,13.288
2019-06-30T17:36:19,42.805,6.029,4330,1995,193.864,59.286,13.288
2019-06-30T17:39:19,42.805,6.029,4330,1995,193.941,59.310,13.288
2019-06-30T17:42:19,42.805,6.029,4330,1995,193.934,59.308,13.288
2019-06-30T17:45:19,42.805,6.029,4330,1995,193.911,59.300,13.288
2019-06-30T17:48:19,42.805,6.029,4330,1995,193.963,59.316,13.288
2019-06-30T17:51:19,42.805,6.029,4330,1995,194.002,59.328,13.288
2019-06-30T17:54:19,42.805,6.029,4330,1995,194.038,59.340,13.288
2019-06-30T17:57:19,42.805,6.029,4330,1995,194.039,59.340,13.288
2019-06-30T18:00:19,42.805,6.029,4330,1995,194.046,59.342,13.288
2019-06-30T18:03:19,42.805,6.029,4330,1995,194.046,59.342,13.288
2019-06-30T18:06:19,42.805,6.029,4330,1995,194.017,59.333,13.288
2019-06-30T18:09:19,42.805,6.029,4330,1995,194.075,59.351,13.288
2019-06-30T18:12:19,42.805,6.029,4330,1995,194.096,59.357,13.288
2019-06-30T18:15:19,42.805,6.029,4330,1995,194.079,59.353,13.288
2019-06-30T18:18:19,42.805,6.029,4330,1995,194.041,59.341,13.288
